Weather in Krasnoarmeyskiy

Russia / Rostov Oblast     47°00′19″N   42°12′33″E
temp.,
°C
wind,
m/s
gust,
m/s
humid.,
%
clouds,
%
prec.,
mm/h
press.,
hPa
HPBL,
m
16 june, wed
wed1600:00+20sse22740 0.0 101015
03:00+19se22760 0.0 101013
06:00+21se11741 0.0 101059
09:00+26e22600 0.0 1011686
12:00+29e33495 0.0 10101760
15:00+30ene554430 0.0 10092090
18:00+28ne595378 0.0 1009358
21:00+24ne715560 0.0 1009365
17 june, thu
thu1700:00+24ene717520 0.0 1008483
03:00+23ene8185579 0.0 1007605
06:00+22ene71866100 0.3 1008602
09:00+24ene71564100 0.3 1008797
12:00+26ne6115892 0.1 1010524
15:00+29ene71253100 0.2 1009772
18:00+20w101390100 4.2 1012431
21:00+18wnw51192100 12.3 1016296
18 june, fri
fri1800:00+17nnw599559 1.3 1016250
03:00+17w3695100 3.1 1015279
06:00+18nw4595100 5.1 1016193
09:00+19ne5879100 5.4 1017544
12:00+19n2788100 0.9 1018366
15:00+21n367196 1.4 1017282
18:00+24ne4116368 0.0 1016504
21:00+22ene7154740 0.0 1018452
19 june, sat
sat1900:00+19ene5135387 0.0 1018294
03:00+18ene615550 0.0 1019425
06:00+18ene7156420 0.0 1020387
09:00+23e813520 0.0 1020669
12:00+27e912390 0.0 10191283
15:00+29e811410 0.0 10181715
18:00+26ene612460 0.0 1017446
21:00+22ene717460 0.0 1018414
20 june, sun
sun2000:00+21ene718410 0.0 1018462
03:00+19ene717370 0.0 1017423
06:00+18ene719501 0.0 1017426
09:00+25e91745100 0.0 1016708
12:00+30e9153854 0.0 10161220
15:00+32e914340 0.0 10151768
18:00+29ese714400 0.0 1015490
21:00+23ese516460 0.0 1017294